Farmington, NM

1:06 PM MST on December 11, 2017 (GMT -0700)
Four Corners Regional

Weather History for KFMN - June, 2013

Change the Weather History Date:

Friday, June 14, 2013

  Actual Average Record
Temperature  
Mean Temperature 79 °F -  
Max Temperature 93 °F 85 °F 98 °F (2006)
Min Temperature 64 °F 49 °F 35 °F (2001)
Cooling Degree Days 14    
Growing Degree Days 29 (Base 50)    
Moisture  
Dew Point 26 °F    
Average Humidity 15    
Maximum Humidity 35    
Minimum Humidity 4    
Precipitation  
Precipitation 0.00 in - - ()
Sea Level Pressure  
Sea Level Pressure 29.81 in    
Wind  
Wind Speed 10 mph (North)    
Max Wind Speed 20 mph    
Max Gust Speed 32 mph    
Visibility 10 miles    
Events      
Averages and records for this station are not official NWS values.
T = Trace of Precipitation, MM = Missing Value Source: NWS Daily Summary

Daily Weather History Graph

Daily Weather History Graph

Search for Another Location

Airport or City:

Trip Planner

Search our weather history database for the weather conditions in past years. The results will help you decide how hot, cold, wet, or windy it might be!

Date:

Astronomy

Jun. 14, 2013 Rise Set
Actual Time 5:53 AM MDT 8:33 PM MDT
Civil Twilight 5:22 AM MDT 9:03 PM MDT
Nautical Twilight 4:44 AM MDT 9:42 PM MDT
Astronomical Twilight 4:01 AM MDT 10:24 PM MDT
Moon 11:24 AM MDT (6/14) No Moon Set
Length of Visible Light 15h 41m
Length of Day
14h 39m
Waxing Crescent, 31% of the Moon is Illuminated
Jun 14
Waxing Crescent
Jun 16
First Quarter
Jun 23
Full
Jun 29
Last Quarter
Jul 8
New

Hourly Weather History & Observations

Time (MDT) Temp. Dew Point Humidity Pressure Visibility Wind Dir Wind Speed Gust Speed Precip Events Conditions
12:53 AM 79.0 °F 35.1 °F 20% 29.81 in 10.0 mi East 17.3 mph - 0.00 in   Scattered Clouds
1:53 AM 78.1 °F 35.1 °F 21% 29.80 in 10.0 mi SE 12.7 mph - N/A   Clear
2:53 AM 73.9 °F 36.0 °F 25% 29.82 in 10.0 mi NE 4.6 mph - N/A   Clear
3:53 AM 71.1 °F 35.1 °F 27% 29.83 in 10.0 mi NNE 8.1 mph - N/A   Clear
4:53 AM 70.0 °F 36.0 °F 29% 29.83 in 10.0 mi NE 8.1 mph - N/A   Clear
5:53 AM 66.0 °F 36.0 °F 33% 29.84 in 10.0 mi ENE 8.1 mph - N/A   Clear
6:53 AM 68.0 °F 39.0 °F 35% 29.87 in 10.0 mi East 8.1 mph - N/A   Clear
7:53 AM 69.1 °F 39.9 °F 35% 29.88 in 10.0 mi East 4.6 mph - N/A   Clear
8:53 AM 75.0 °F 39.9 °F 28% 29.88 in 10.0 mi East 4.6 mph - N/A   Clear
9:53 AM 79.0 °F 34.0 °F 20% 29.87 in 10.0 mi South 3.5 mph - N/A   Clear
10:53 AM 82.9 °F 30.9 °F 15% 29.86 in 10.0 mi Calm Calm - N/A   Clear
11:53 AM 86.0 °F 24.1 °F 10% 29.85 in 10.0 mi WSW 9.2 mph 17.3 mph N/A   Clear
12:53 PM 87.1 °F 21.9 °F 9% 29.83 in 10.0 mi West 6.9 mph - N/A   Clear
1:53 PM 90.0 °F 19.9 °F 8% 29.81 in 10.0 mi WNW 9.2 mph - N/A   Clear
2:53 PM 91.0 °F 19.9 °F 7% 29.78 in 10.0 mi West 9.2 mph 21.9 mph N/A   Clear
3:53 PM 91.0 °F 19.0 °F 7% 29.76 in 10.0 mi NNW 10.4 mph 18.4 mph N/A   Clear
4:53 PM 90.0 °F 21.9 °F 8% 29.75 in 10.0 mi WSW 18.4 mph 25.3 mph N/A   Clear
5:53 PM 91.0 °F 19.9 °F 7% 29.73 in 10.0 mi West 15.0 mph 32.2 mph N/A   Clear
6:53 PM 90.0 °F 19.0 °F 7% 29.72 in 10.0 mi West 13.8 mph - N/A   Clear
7:53 PM 87.1 °F 18.0 °F 8% 29.73 in 10.0 mi WNW 19.6 mph 24.2 mph N/A   Clear
8:53 PM 81.0 °F 12.9 °F 8% 29.74 in 10.0 mi NW 9.2 mph - N/A   Clear
9:53 PM 79.0 °F 14.0 °F 9% 29.76 in 10.0 mi Calm Calm - N/A   Clear
10:53 PM 66.9 °F 14.0 °F 13% 29.81 in 10.0 mi NNE 3.5 mph - N/A   Clear
11:53 PM 64.9 °F 12.9 °F 13% 29.81 in 10.0 mi NNE 6.9 mph - N/A   Clear